This is the latest recevied weather packets stored in our database for station/object W0AKY-13. If no packets are shown the sender has not sent any weather packets the latest 10 day(s).
| Time | Temp. | Humidity | Pressure | Rain* | Wind** | Luminosity | Snow |
|---|---|---|---|---|---|---|---|
| 1777970004 | 10° C | 80% | 1012.2 hPa | 0 mm | - | 0 W/m² | - |
| 1777969700 | 10° C | 79% | 1012.2 hPa | 0 mm | - | 0 W/m² | - |
| 1777969396 | 10.56° C | 77% | 1011.9 hPa | 0 mm | - | 0 W/m² | - |
| 1777969093 | 10.56° C | 69% | 1011.8 hPa | 0 mm | - | 0 W/m² | - |
| 1777968790 | 10° C | 68% | 1011.5 hPa | 0 mm | - | 0 W/m² | - |
| 1777968486 | 10° C | 69% | 1011.1 hPa | 0 mm | - | 0 W/m² | - |
| 1777968182 | 10° C | 71% | 1010.9 hPa | 0 mm | - | 0 W/m² | - |
| 1777967878 | 10° C | 71% | 1010.8 hPa | 0 mm | - | 0 W/m² | - |
| 1777967575 | 10° C | 74% | 1010.9 hPa | 0 mm | - | 0 W/m² | - |
| 1777967272 | 9.44° C | 80% | 1010.8 hPa | 0 mm | - | 0 W/m² | - |
| 1777966970 | 9.44° C | 82% | 1010.9 hPa | 0 mm | - | 0 W/m² | - |
| 1777966667 | 9.44° C | 83% | 1010.9 hPa | 0 mm | - | 0 W/m² | - |
| 1777966365 | 9.44° C | 83% | 1011 hPa | 0 mm | - | 0 W/m² | - |
| 1777966061 | 9.44° C | 84% | 1010.9 hPa | 0 mm | - | 0 W/m² | - |
| 1777965757 | 9.44° C | 86% | 1010.9 hPa | 0 mm | - | 0 W/m² | - |
| 1777965453 | 9.44° C | 84% | 1010.7 hPa | 0 mm | - | 0 W/m² | - |
| 1777965150 | 9.44° C | 80% | 1010.7 hPa | 0 mm | - | 0 W/m² | - |
| 1777964848 | 9.44° C | 79% | 1011 hPa | 0 mm | - | 0 W/m² | - |
| 1777964544 | 9.44° C | 76% | 1011.1 hPa | 0 mm | - | 0 W/m² | - |
| 1777964240 | 9.44° C | 77% | 1010.9 hPa | 0 mm | - | 0 W/m² | - |
| 1777963937 | 9.44° C | 76% | 1011 hPa | 0 mm | - | 0 W/m² | - |
| 1777963634 | 10° C | 75% | 1011 hPa | 0 mm | - | 0 W/m² | - |
| 1777963332 | 10° C | 75% | 1010.8 hPa | 0 mm | - | 0 W/m² | - |
| 1777963029 | 9.44° C | 74% | 1010.9 hPa | 0 mm | - | 0 W/m² | - |
| 1777962725 | 10° C | 73% | 1010.8 hPa | 0 mm | - | 0 W/m² | - |
* Rain latest hour (hover to see other rain measurements)
** Current wind speed in m/s (hover to see current wind gust speed)